Regional Weather Roundup
Issued by NWS

Home | Current Version | Previous Version | Graphics & Text | Print | Product List | Glossary On
Versions: 1 2 3 4 5 6 7 8 9 10 11 12 13 14 15 16 17 18 19 20 21 22 23 24 25 26 27 28
000
ASUS45 KTFX 050510
RWRMT
MONTANA REGIONAL WEATHER ROUNDUP
NATIONAL WEATHER SERVICE GREAT FALLS MT
1000 PM MST SUN DEC 04 2016

NOTE: "FAIR" INDICATES FEW OR NO CLOUDS BELOW 12000 FEET WITH NO
SIGNIFICANT WEATHER AND/OR OBSTRUCTIONS TO VISIBILITY.

MTZ001>007-043-050600-
WEST OF THE DIVIDE

CITY           SKY/WX    TMP DP  RH WIND       PRES   REMARKS
KALISPELL      CLOUDY    30  23  75 S7        29.67R WCI  23
MISSOULA       LGT SNOW  26  25  96 W9G21     29.77S FOG     WCI  17
BUTTE          CLOUDY    23  14  68 NW8       29.64R WCI  14
MULLAN PASS    LGT SNOW  17  14  88 NW9G28    29.63R VSB 3/4 WCI   6
ANACONDA         N/A     23  18  80 W7        29.68R WCI  15
DEER LODGE       N/A     25  21  86 NW10      29.69R WCI  15
EUREKA           N/A     27  27 100 SE9       29.72R VSB 1/2 WCI  17
HAMILTON         N/A     28  16  59 CALM      29.79R
LIBBY            N/A     27  25  93 CALM      29.71R
PLAINS           N/A     28  22  78 CALM      29.77R
RONAN            N/A     30  22  72 CALM      29.77R
THOMPSON FALLS   N/A     28  26  92 CALM      29.83R
$$

MTZ008-052>055-050600-
SOUTHWEST MONTANA

CITY           SKY/WX    TMP DP  RH WIND       PRES   REMARKS
BOZEMAN        CLOUDY    32  18  56 NW12      29.61R WCI  23
DILLON         CLOUDY    27  16  63 NW7       29.61R WCI  19
W YELLOWSTONE  CLOUDY    27  25  93 SW14      29.56  WCI  15
ENNIS          CLOUDY    28  23  80 N7        29.63R WCI  21
THREE FORKS      N/A     32  32 100 CALM      29.66R
TWIN BRIDGES     N/A     29  10  44 W10       29.67R WCI  20
$$

MTZ009-010-012-014-046-048-049-054-050600-
EAST SLOPES AND CENTRAL MONTANA

CITY           SKY/WX    TMP DP  RH WIND       PRES   REMARKS
CUT BANK       CLOUDY    18  15  88 N13       29.70R WCI   5
GREAT FALLS    CLOUDY    23  17  78 N15       29.69R WCI  10
MALMSTROM AFB  CLOUDY    23  19  85 N12G18    29.70R WCI  12
HELENA         CLOUDY    31  18  58 W18       29.65R WCI  19
AUGUSTA        LGT SNOW  19  17  95 N22G28    29.64R WCI   2
BOWMANS CRNR   LGT SNOW  19  17  94 NE3       29.65R
CHOTEAU          N/A     21  18  86 N13       29.71R FOG     WCI   9
CONRAD           N/A     21  21 100 NW7       29.75R WCI  12
FAIRFIELD      FLURRIES  20  16  81 N16G23    29.68R WCI   6
POWER          MOCLDY    20  17  88 N18G26    29.67R WCI   4
RAYNESFORD     LGT SNOW  22  19  91 NW13G21   29.65R WCI   9
ULM            CLOUDY    24  19  83 N14G21    29.70R WCI  11
$$

MTZ011-013-016-021-045-047-050-051-050600-
NORTH CENTRAL MONTANA

CITY           SKY/WX    TMP DP  RH WIND       PRES   REMARKS
HAVRE          LGT SNOW  25  22  88 N15       29.65R FOG     WCI  13
LEWISTOWN      LGT SNOW  26  23  88 W17       29.58R FOG     WCI  13
N BAR RANCH    CLOUDY    27  19  74 W12G20    29.55R WCI  16
CHINOOK          N/A     27  21  80 NW13G18   29.63R WCI  16
DENTON         CLOUDY    24  21  89 NW22G45   29.59R WCI   9
GEYSER         SNOWSHWR  22  20  89 W18G28    29.61R WCI   8
GRASS RANGE    FLURRIES  26  24  91 W14       29.52S WCI  15
JUDITH GAP     FLURRIES  24  20  85 NW14G20   29.57R WCI  11
ROY            FLURRIES  28  25  90 MISG      29.53S
STANFORD       LGT SNOW  21  20  93 NW28G35   29.59R FOG     WCI   4
WINIFRED       CLOUDY    24  22  94 MISG      29.58R
$$

MTZ017>020-022>027-061-062-050600-
NORTHEAST MONTANA

CITY           SKY/WX    TMP DP  RH WIND       PRES   REMARKS
GLASGOW        SNOW      32  31  96 SW3       29.49R VSB 1/2
JORDAN           N/A     29  26  89 NW9       29.52R WCI  20
SIDNEY         PTCLDY    27  24  89 S6        29.50F WCI  20
WOLF POINT     LGT SNOW  32  26  78 CALM      29.49R
PLENTYWOOD       N/A     28  25  86 E6        29.48F WCI  22
POPLAR           N/A     28  25  86 N7        29.48F WCI  21
SCOBEY           N/A     29  18  63 CALM      29.49F
$$

MTZ028>42-056>058-050600-
SOUTHCENTRAL AND SOUTHEAST MONTANA

CITY           SKY/WX    TMP DP  RH WIND       PRES   REMARKS
BAKER          MOCLDY    27  20  75 CALM      29.51S
BILLINGS       CLOUDY    34  26  72 NW15      29.56R WCI  24
LIVINGSTON     CLOUDY    30  23  75 W7        29.58R WCI  23
MILES CITY     CLOUDY    37  31  78 NW17G26   29.52R WCI  27
BIG TIMBER     CLOUDY    32  18  55 NW16      29.58R WCI  21
EKALAKA          N/A     34  18  52 CALM      29.52
FORSYTH          N/A     36  34  93 SW6       29.54S WCI  31
HARLOWTON      MOCLDY    26  20  77 N9        29.56R WCI  17
LAUREL           N/A     36  16  44 NW16      29.58R WCI  26
$$

REGIONAL REPORTS...DAKOTAS

CITY           SKY/WX    TMP DP  RH WIND       PRES   REMARKS
WILLISTON      CLOUDY    26  21  81 CALM      29.51F
MINOT          CLOUDY    17  14  88 E3        29.58F
DICKINSON      CLOUDY    29  22  75 S9        29.51F WCI  20
BEACH          CLOUDY    30  27  86 S12       29.52F WCI  21
CROSBY         CLOUDY    23  23 100 SE7       29.55F WCI  15
TIOGA          CLOUDY    21  21 100 SE8       29.54F WCI  12
WATFORD CITY     N/A     27  23  86 E6        29.52F WCI  20
BISMARCK       CLOUDY    16  15  96 NE8       29.63F WCI   5
GRAND FORKS    CLOUDY    29  25  85 W12       29.68R WCI  19
FARGO          CLEAR     27  23  85 W8        29.69S WCI  19
BUFFALO SD       N/A     29  21  72 SE8       29.45F WCI  21
RAPID CITY     PTCLDY    34  18  52 SE6       29.53F WCI  29
$$

REGIONAL REPORTS...WYOMING/IDAHO/WASHINGTON

CITY           SKY/WX    TMP DP  RH WIND       PRES   REMARKS
GILLETTE       CLEAR     38  22  52 SW15      29.50F WCI  29
SHERIDAN       CLOUDY    32  23  69 W3        29.49F
BUFFALO WY     CLOUDY    36  17  46 NW3       29.49F
CODY           SNOW      30  29  96 CALM      29.52S VSB 1/2
YELLOWSTONE LA   N/A     24  20  84 W7G21     29.56S WCI  16
IDAHO FALLS    CLOUDY    35  31  85 SW28G37   29.66R WCI  22
SALMON         CLOUDY    30  19  64 NE10      29.73R WCI  21
BOISE          MOCLDY    32  21  64 NW15      29.94R WCI  22
SPOKANE        CLEAR     27  14  58 W10       29.90R WCI  17
$$

REGIONAL REPORTS...ALBERTA

CITY           SKY/WX    TMP DP  RH WIND       PRES   REMARKS
EDMONTON       CLOUDY     5  -2  72 NW16G23   29.87R WCI -14
CALGARY        MOCLDY    16   9  73 N14       29.75R WCI   1
LETHBRIDGE     CLOUDY    23  16  74 N7        29.76R WCI  15
MEDICINE HAT   CLOUDY    23  14  68 NW13G20   29.72R WCI  11
WATERTON GATE    N/A     18  16  93 NE3         N/A
CARDSTON         N/A     19  16  86 N8          N/A  WCI   9
MILK RIVER       N/A     19  16  86 N18         N/A  WCI   4
$$

REGIONAL REPORTS...SASKATCHEWAN

CITY           SKY/WX    TMP DP  RH WIND       PRES   REMARKS
SWIFT CURRENT  CLOUDY    19  18  93 NW20      29.57R WCI   4
REGINA         CLOUDY    21  18  86 E8        29.54S WCI  12
SASKATOON      PTCLDY    12   9  85 W9        29.62R WCI   0
CYPRESS HILLS    N/A     16  12  86 N14G22      N/A  WCI   1
VAL MARIE        N/A     25  23  93 N12         N/A  WCI  14
ROCKGLEN         N/A     30  30 100 SW5         N/A
ASSINIBOIA       N/A      9   1  72 NW22G29     N/A  WCI -11
$$




USA.gov is the U.S. government's official web portal to all federal, state and local government web resources and services.